RH
91 95 98 90 87 78 74 79 90 86 76 81 95 98 87 60 63 66 36 70 69 69 42 39 42 38 32 27 26 24 19 17 22 18 25 21 22 20 17 18 16 17 19 20 20
96 89 94 92 80 76 87 75 82 73 87 89 95 94 72 61 48 40 67 80 81 71 37 35 34 31 28 27 26 26 19 20 23 23 23 22 20 20 18 18 17 18 18 20 21
86 82 80 72 73 86 91 73 69 69 87 84 99 84 72 63 34 32 50 77 71 60 35 30 29 25 28 23 27 29 25 26 27 26 21 23 21 18 19 21 16 17 19 18 20
83 79 75 68 66 73 71 71 70 80 96 100 90 76 63 47 38 35 38 46 48 61 40 32 28 27 27 25 26 29 29 26 28 25 25 24 19 20 19 16 13 14 15 17 18
68 63 66 67 71 75 78 91 98 98 99 80 73 66 50 32 33 39 35 35 40 44 35 28 24 23 25 25 24 27 26 23 23 22 21 19 21 19 17 14 11 13 15 15 16
79 73 71 71 74 82 94 100 95 87 80 78 71 58 47 36 38 39 36 34 34 33 30 25 21 20 22 24 24 26 24 22 21 22 24 22 18 16 12 10 14 14 16 14 16
84 82 78 89 91 93 98 97 68 58 50 61 59 41 35 42 39 38 33 32 33 29 29 23 19 20 20 26 21 22 26 23 22 22 23 24 19 20 11 12 11 14 14 14 14
96 95 94 88 92 94 88 80 65 63 51 41 52 40 41 40 38 37 28 28 27 26 26 22 20 22 21 19 18 19 22 27 26 25 24 23 18 12 12 12 12 11 12 14 15
74 84 86 82 80 73 67 67 63 55 63 44 37 37 38 35 34 38 32 24 24 24 22 23 21 22 21 20 22 20 22 21 28 31 31 24 18 14 13 16 13 11 12 13 20
74 78 77 70 72 70 60 54 52 55 53 38 41 37 34 38 40 41 33 27 20 23 21 20 21 22 21 31 49 22 19 18 19 33 30 25 22 16 14 15 14 12 11 12 16
68 72 69 64 60 54 52 58 49 46 49 60 53 37 39 38 37 31 34 22 18 18 20 31 47 45 28 20 17 15 14 15 25 33 36 24 23 18 14 13 15 14 12 11 11
60 66 68 61 56 59 65 60 79 73 59 47 42 39 41 42 27 30 29 21 20 25 25 32 47 35 29 26 20 18 16 23 24 35 34 24 27 17 13 14 14 16 16 14 13
55 61 59 51 47 56 64 76 87 86 41 44 39 38 40 31 38 40 28 26 23 25 25 29 38 35 25 26 29 36 30 33 39 32 35 30 20 14 24 23 27 29 30 30 30
58 53 54 50 59 70 65 76 75 83 73 62 37 36 34 34 37 36 38 31 30 33 32 36 35 29 29 40 38 29 42 41 40 38 40 27 33 13 12 14 21 21 25 32 34
54 52 49 45 60 56 71 67 80 74 83 42 41 35 32 34 35 35 34 26 31 35 39 48 35 31 41 50 40 47 45 46 46 42 41 34 37 14 14 17 22 28 30 38 40
52 51 52 58 58 75 61 68 62 82 82 47 39 39 33 33 35 31 29 29 32 34 40 48 45 46 44 50 43 49 49 44 40 40 70 53 44 11 15 22 20 26 29 35 40
51 52 54 63 60 72 68 52 89 85 48 46 43 37 36 40 36 34 34 37 40 85 91 35 45 47 48 47 50 48 43 76 73 93 52 53 65 33 19 20 23 30 30 31 33
52 55 59 63 70 62 56 47 96 63 47 45 39 36 39 40 36 33 34 39 33 26 43 67 64 46 47 52 47 41 37 65 56 40 32 51 67 29 16 18 21 22 31 27 34
54 68 72 81 62 72 44 84 83 46 40 40 38 36 42 38 34 31 33 34 38 35 35 60 61 50 51 48 51 48 46 36 50 57 57 34 33 20 17 19 28 29 29 29 31
55 57 66 65 65 62 55 65 52 44 40 35 32 32 35 34 33 30 30 39 43 45 39 27 65 49 53 51 52 53 38 47 49 63 35 27 22 33 21 33 26 25 26 24 25
57 49 76 67 59 45 82 62 50 46 45 40 34 34 32 36 31 28 28 40 35 44 37 26 35 57 54 53 41 52 44 42 39 31 32 17 23 28 27 26 27 25 26 27 28
59 55 74 69 52 40 58 45 49 48 47 44 38 38 30 35 32 30 28 36 34 38 37 39 31 51 39 46 44 45 34 30 30 32 27 30 25 17 24 30 31 24 25 25 25
44 43 62 63 61 51 49 49 46 48 47 45 44 42 39 37 39 38 41 45 42 42 38 38 34 39 34 43 49 52 38 38 31 34 32 21 16 19 27 32 17 22 23 23 22
39 64 43 36 38 32 38 46 52 52 48 45 44 40 40 39 38 42 46 52 46 44 60 44 34 32 30 28 35 46 42 42 39 48 29 24 17 17 18 17 19 24 22 21 22
41 50 49 48 38 36 36 39 45 50 47 44 44 40 36 37 38 39 43 53 52 65 49 46 46 49 40 32 31 29 27 39 49 40 30 21 19 18 21 25 25 23 23 25 25
37 36 41 40 41 35 45 38 37 45 40 42 40 40 39 34 33 35 37 38 39 56 50 50 52 52 74 36 42 47 37 34 32 39 37 33 33 24 25 24 27 26 26 28 27
55 49 38 53 36 29 34 39 39 42 47 40 38 38 42 39 39 39 37 38 38 43 50 51 55 61 47 41 38 39 32 35 37 34 33 40 29 30 31 31 31 30 30 28 28
Wind_Speed
28 11 10 8 8 16 16 15 15 12 13 17 23 21 19 19 17 10 12 5 1 2 6 6 8 11 9 3 2 2 4 7 5 11 8 10 8 3 1 6 3 2 4 10 14
23 14 6 5 8 14 13 13 11 11 12 13 21 19 19 22 13 10 1 3 4 1 8 13 13 14 5 3 1 2 4 5 5 7 8 12 7 9 6 7 5 7 7 9 11
17 18 11 7 11 12 13 11 10 11 11 13 24 22 18 6 10 4 2 5 4 3 7 10 12 10 8 5 2 3 3 6 4 5 3 9 6 3 5 7 6 10 11 12 11
15 14 13 12 12 12 13 11 10 12 18 24 22 24 12 2 4 2 5 3 6 4 10 12 12 9 8 8 3 5 5 3 3 3 2 7 4 4 6 3 4 2 11 11 10
19 13 10 10 11 13 16 19 24 28 22 24 26 20 4 3 5 6 5 1 4 6 12 12 13 8 8 7 7 8 7 7 6 5 4 1 2 4 8 5 3 4 7 10 9
22 17 14 16 18 21 27 33 32 29 24 25 25 22 5 5 6 9 3 3 7 6 8 12 6 3 8 5 3 7 11 9 4 5 4 2 3 2 6 6 7 7 9 9 9
29 19 20 21 21 30 27 26 30 27 27 22 20 9 7 6 7 8 2 4 3 5 9 5 8 1 8 9 8 12 10 8 4 2 2 3 6 11 5 6 10 11 10 10 10
26 23 21 21 27 27 27 27 22 17 20 23 9 5 5 5 5 9 5 10 8 9 13 9 13 9 3 13 6 4 5 6 4 1 2 3 2 6 6 8 10 11 12 12 12
25 21 24 23 22 27 27 24 22 20 12 14 11 5 6 4 3 8 6 9 10 10 9 6 4 6 5 9 6 5 6 7 5 2 2 4 5 5 5 8 11 11 11 11 11
22 18 20 21 21 18 18 21 18 20 15 17 6 2 4 4 5 7 5 4 5 8 7 2 3 6 5 5 4 8 5 4 4 3 3 7 14 13 10 11 12 11 11 12 12
20 16 14 17 16 10 9 3 5 7 18 6 2 10 5 4 2 9 6 2 5 2 7 3 6 8 7 4 3 3 4 5 4 2 4 6 13 15 13 14 14 14 14 13 13
16 12 13 10 8 7 6 4 6 3 10 6 3 7 4 3 6 12 10 2 4 7 6 5 7 6 4 4 5 3 4 4 3 1 4 8 19 18 14 12 12 10 11 12 12
18 7 9 8 9 17 17 8 5 6 6 5 4 7 4 7 6 9 8 3 8 8 5 5 7 2 4 7 6 9 4 4 3 6 2 11 11 3 4 1 0 4 5 6 8
14 9 6 6 1 5 5 7 5 4 4 7 5 5 4 2 5 7 6 3 4 10 10 8 3 3 6 6 5 3 3 2 3 4 2 6 4 8 5 4 3 2 2 3 3
11 11 9 8 3 4 6 9 5 3 4 6 4 3 4 4 2 7 6 7 7 5 2 3 5 5 5 3 5 4 0 2 2 2 4 4 2 2 2 7 8 9 4 3 2
9 10 9 5 3 2 8 7 3 2 4 2 3 2 4 8 3 2 3 7 2 9 16 7 2 3 3 5 6 6 2 1 1 0 1 4 2 3 4 6 6 5 6 2 2
7 6 6 5 3 6 5 3 2 5 2 4 4 3 6 4 4 3 3 4 1 4 3 4 4 3 2 2 2 3 3 1 1 1 2 3 2 9 5 6 6 5 7 6 3
3 3 3 4 4 6 3 2 5 0 3 2 3 6 4 3 3 2 3 3 4 2 3 3 2 1 2 3 4 2 3 1 2 2 2 1 5 2 6 6 5 1 4 8 4
3 0 1 3 3 4 3 3 3 3 5 6 5 4 2 2 1 1 2 2 3 5 1 3 3 2 2 2 4 2 1 3 2 2 3 3 4 2 4 9 11 10 6 8 6
2 3 1 3 1 2 1 4 2 4 2 1 2 3 4 4 4 4 3 1 2 2 3 2 3 0 2 2 2 3 2 2 2 2 4 4 4 3 5 4 7 7 8 10 11
2 3 1 1 1 2 3 5 5 3 4 3 2 3 3 4 3 4 4 3 2 3 2 2 1 4 2 7 4 3 3 4 3 2 3 4 1 4 5 4 5 8 7 8 10
2 1 2 1 1 3 4 3 1 3 2 2 1 4 3 2 2 2 4 4 3 3 2 1 2 3 1 3 2 5 5 8 4 4 3 3 6 6 7 6 2 7 6 8 9
2 2 2 1 3 4 4 4 3 2 1 1 2 2 0 3 1 1 2 2 2 2 1 1 2 2 3 3 3 5 10 9 5 3 9 4 1 6 7 6 8 11 9 10 12
2 1 2 2 3 9 7 4 4 2 2 1 2 1 3 3 1 3 4 2 1 1 4 2 2 6 3 3 2 4 9 13 12 5 6 11 12 7 8 10 14 10 10 13 14
2 2 2 1 4 4 1 4 6 3 1 1 2 2 2 3 3 3 3 4 2 3 1 2 4 4 10 10 10 12 13 14 19 18 9 9 12 13 18 15 9 9 13 15 14
2 1 2 3 0 1 1 2 3 3 3 3 1 2 1 1 2 2 5 5 4 6 5 3 2 3 5 6 8 14 18 19 19 19 20 22 23 12 9 9 10 13 14 14 13
1 0 3 1 1 2 2 3 4 4 1 1 1 3 4 0 1 2 2 2 1 3 8 4 2 1 4 0 10 13 17 19 13 12 14 16 10 7 8 10 13 17 16 14 15
Wind_Direction
356 32 185 203 200 177 189 199 190 175 170 184 180 172 162 150 145 166 174 51 344 356 155 165 177 159 162 127 3 299 219 176 156 175 139 155 160 168 46 140 174 91 40 86 129
21 50 116 177 170 172 180 188 185 169 165 173 177 147 154 143 157 160 149 339 312 316 175 173 162 169 141 120 47 302 239 75 8 53 158 171 188 159 184 165 176 158 123 141 153
17 44 71 114 154 164 170 177 180 155 144 155 150 130 157 172 168 107 277 325 254 165 186 177 156 181 136 153 40 34 38 120 72 36 122 155 166 168 218 205 200 198 169 167 170
18 28 64 109 126 152 164 158 153 140 140 129 137 146 154 257 170 61 320 258 190 194 175 167 166 163 153 147 113 120 71 53 98 50 136 174 122 206 238 45 18 225 162 176 187
29 47 59 109 138 138 132 125 118 112 120 143 139 127 200 177 62 350 337 3 155 160 175 176 170 152 141 129 114 101 120 85 90 85 63 359 221 294 244 199 180 166 174 193 204
51 58 77 95 110 118 119 109 108 102 108 128 135 142 294 98 358 351 343 112 150 169 160 184 154 101 107 89 15 118 112 106 85 84 63 295 215 287 211 172 197 190 203 208 214
50 59 77 84 106 104 109 112 111 103 100 129 138 131 75 58 3 12 27 137 136 152 128 98 118 206 129 107 105 128 109 121 78 38 98 333 238 231 212 192 214 215 218 219 220
48 75 84 103 104 100 98 111 114 123 114 101 102 33 55 6 43 37 101 97 90 91 109 99 102 90 60 123 116 131 169 161 102 2 134 270 270 155 167 210 227 225 223 225 230
46 69 83 85 102 106 98 104 99 90 126 97 83 335 90 357 44 26 36 104 98 95 88 102 82 95 148 150 128 197 187 196 146 68 296 239 283 106 193 225 241 233 227 220 222
49 78 90 87 97 99 90 84 96 92 93 82 38 158 36 31 351 346 41 70 105 119 119 124 113 130 141 169 180 181 157 185 178 72 266 254 263 269 217 229 239 240 230 228 221
40 86 96 104 96 69 37 4 131 61 52 83 58 87 69 359 26 38 9 101 139 173 141 30 127 139 116 36 353 113 142 142 104 42 310 264 278 274 260 248 245 248 254 251 238
38 85 116 104 24 31 53 56 33 28 89 37 93 81 54 318 103 29 11 153 199 114 140 119 108 82 85 77 75 83 133 79 104 49 306 300 285 272 256 256 258 268 269 267 257
42 63 96 120 32 50 61 48 348 323 95 66 40 34 4 19 48 13 2 37 84 97 119 109 89 98 102 77 91 51 44 48 9 307 215 298 269 238 109 97 224 262 267 293 287
38 54 16 350 2 6 47 346 336 326 97 12 15 43 349 331 73 19 16 1 61 96 85 71 68 96 105 72 338 138 41 40 353 336 286 358 293 310 71 53 67 356 241 325 316
20 18 10 35 27 30 323 333 319 265 84 357 24 324 26 54 97 46 25 46 80 87 216 90 91 90 75 38 341 102 142 28 332 5 314 126 256 213 89 106 42 33 46 56 81
350 356 7 7 52 355 328 323 292 288 83 76 5 26 110 53 63 74 82 65 27 71 70 94 105 29 66 69 52 134 197 238 227 307 265 54 320 297 65 359 351 35 47 30 159
317 346 3 354 340 326 327 255 19 49 215 106 81 87 86 53 71 49 66 60 70 86 42 107 46 83 356 156 166 236 249 303 287 18 1 78 330 268 22 8 333 342 353 355 355
294 352 14 8 336 338 304 238 66 329 71 124 119 99 78 357 72 77 144 114 63 21 133 154 165 37 20 0 359 42 352 326 287 306 24 111 235 130 356 24 16 303 351 350 344
158 190 72 336 352 338 264 44 123 145 124 143 145 129 98 98 344 191 50 72 45 7 60 126 109 125 38 344 324 106 181 36 37 108 256 225 240 213 129 54 51 55 50 26 6
195 208 145 314 340 247 80 88 72 32 100 215 112 280 151 144 189 209 179 86 115 21 334 136 104 159 101 268 82 326 102 184 190 287 273 210 264 192 152 45 65 39 357 341 338
227 230 34 327 198 218 78 77 98 82 7 354 77 136 134 152 211 166 144 138 186 132 329 187 245 132 203 206 185 157 204 222 312 267 284 306 150 141 160 142 26 0 350 338 334
295 301 16 195 165 75 66 70 343 74 53 69 59 41 132 154 159 163 175 39 127 177 175 83 290 177 151 91 316 302 249 217 251 182 242 296 278 142 136 149 274 347 333 332 330
296 34 331 202 92 95 120 88 65 139 58 53 82 5 78 138 196 128 109 53 125 205 8 148 218 189 195 181 188 230 214 228 255 290 237 264 173 153 169 225 332 341 332 335 331
265 4 103 100 344 119 131 124 125 105 117 41 110 182 163 149 29 164 141 109 103 27 13 334 290 268 304 32 40 206 214 212 213 214 238 229 262 209 247 302 331 336 329 331 334
341 71 3 83 69 97 76 149 146 150 152 216 163 257 194 160 168 159 136 143 167 148 161 287 277 318 283 277 253 255 246 214 220 230 251 267 286 304 320 321 334 320 333 338 336
339 209 166 92 48 198 157 139 157 136 183 165 210 151 213 282 1 174 183 203 201 183 203 189 266 322 277 259 270 263 253 244 238 240 254 266 280 305 346 330 335 326 329 326 329
49 357 291 129 160 261 68 131 165 158 162 19 185 189 209 212 321 66 46 26 327 212 200 206 233 283 269 299 304 274 254 229 228 234 240 247 272 346 334 338 332 317 324 318 330